Hourly Data Report for August 26, 2002

SHERBROOKE A
QUEBEC

45°26'00.000" N
71°41'00.000" W
241.40 m
7028124
71610
YSC

Download Data

Hourly Data (August 2002)
Hourly Data Report for August 26, 2002
TIME
LST
Temp Definition
°C
Dew Point Definition
°C
Rel Hum Definition
%
Precip. Amount Definition
mm

Wind Dir Definition
10's deg

Wind Spd Definition
km/h
Visibility Definition
km
Stn Press Definition
kPa
Hmdx Definition


Wind Chill Definition


Weather Definition


00:00 10.4 9.4 94   22 6 15.0 98.47      
01:00 9.3 8.7 96     0 15.0 98.49      
02:00 8.4 7.5 94   21 6 15.0 98.50      
03:00 7.4 7.0 97     0 2.4 98.52      
04:00 6.8 6.1 95     0 15.0 98.52      
05:00 6.7 6.6 99   8 4 1.6 98.55      
06:00 9.7 9.7 100   7 4 15.0 98.56      
07:00 13.9 12.2 89     0 24.1 98.60     Clear
08:00 17.7 13.2 75   23 11 24.1 98.60     Clear
09:00 20.0 12.7 63   21 17 24.1 98.56     Clear
10:00 22.3 14.3 61   23 11 24.1 98.51 26   Clear
11:00 23.7 14.6 57   21 17 24.1 98.45 27   Clear
12:00 25.3 14.5 51   24 19 24.1 98.42 29   Clear
13:00 26.2 13.8 46   23 20 24.1 98.42 29   Mainly Clear
14:00 26.5 13.8 46   28 19 24.1 98.41 30   Mainly Clear
15:00 26.4 14.3 47   27 24 24.1 98.39 30   Mainly Clear
16:00 25.7 13.8 48   26 24 24.1 98.39 29   Mainly Clear
17:00 25.1 14.3 51   27 19 15.0 98.43 29    
18:00 22.9 14.3 58   25 11 15.0 98.46 26    
19:00 19.8 13.9 69   20 6 15.0 98.50      
20:00 18.9 13.8 72   21 6 15.0 98.56      
21:00 19.0 14.1 73   23 7 15.0 98.59      
22:00 16.1 13.8 86   28 6 15.0 98.66      
23:00 16.3 12.8 80   36 4 15.0 98.74      

Notes on Data Quality.

Legend

  • E = Estimated
  • M = Missing
  • NA = Not Available*
  • [empty] = Indicates an unobserved value
Date modified: